This demonstration page uses our WeatherBlox Daily Observations layout. Learn more.

Left ArrowRight Arrow

38.89511, -77.03637

Hourly Observations for May 23, 2018

Temp ( °F °C ) Dew Point ( °F °C ) Humidity (%) Winds ( mph kmh ) Pressure ( in mb ) Visibility ( mi km ) Precip ( " mm )
12:41 am 00:41 Cloudy 69 20.6 66 18.9 90 90 S 7 11 29.97 1015 10 16 0.00 0.00
12:52 am 00:52 Mostly Cloudy 69 20.6 66 18.9 90 90 S 5 7 29.96 1014 10 16 0.00 0.00
12:57 am 00:57 Mostly Cloudy 69 20.6 66 18.9 90 90 S 8 13 29.94 1014 10 16 0.00 0.00
1:52 am 01:52 Mostly Cloudy 68 20 66 18.9 93 93 S 10 17 29.91 1013 10 16 0.00 0.00
2:52 am 02:52 Cloudy 69 20.6 66 18.9 90 90 Calm 29.92 1013 10 16 0.00 0.00
3:23 am 03:23 Mostly Cloudy 69 20.6 66 18.9 90 90 SSE 5 7 29.91 1013 10 16 0.00 0.00
3:52 am 03:52 Mostly Cloudy 69 20.6 66 18.9 90 90 S 3 6 29.92 1013 10 16 0.00 0.00
4:52 am 04:52 Mostly Cloudy 68 20 65 18.3 90 90 S 6 9 29.93 1014 9 14 0.00 0.00
5:52 am 05:52 Mostly Cloudy 68 20 66 18.9 93 93 SSW 3 6 29.93 1014 9 14 0.00 0.00
6:52 am 06:52 Mostly Cloudy 68 20 66 18.9 93 93 Calm 29.96 1015 8 13 0.00 0.00
7:52 am 07:52 Partly Cloudy 70 21.1 67 19.4 90 90 SSE 6 9 29.98 1015 9 14 0.00 0.00
8:52 am 08:52 Partly Cloudy 77 25 65 18.3 66 66 NW 9 15 29.99 1016 10 16 0.00 0.00
9:52 am 09:52 Mostly Cloudy 79 26.1 66 18.9 65 65 NNW 9 15 29.99 1016 10 16 0.00 0.00
10:52 am 10:52 Mostly Cloudy 79 26.1 63 17.2 58 58 NW 13 20 30.00 1016 10 16 0.00 0.00
11:52 am 11:52 Partly Cloudy 81 27.2 62 16.7 53 53 N 18 30 30.00 1016 10 16 0.00 0.00
12:52 pm 12:52 Partly Cloudy 81 27.2 59 15 47 47 NNW 21 33 30.02 1017 10 16 0.00 0.00
1:52 pm 13:52 Partly Cloudy 82 27.8 58 14.4 44 44 NNW 20 31 30.03 1017 10 16 0.00 0.00
2:52 pm 14:52 Mostly Cloudy 80 26.7 58 14.4 47 47 NNW 16 26 30.03 1017 10 16 0.00 0.00
3:52 pm 15:52 Mostly Cloudy 83 28.3 59 15 44 44 NW 16 26 30.03 1017 10 16 0.00 0.00
4:52 pm 16:52 Mostly Cloudy 82 27.8 58 14.4 44 44 NNW 15 24 30.02 1017 10 16 0.00 0.00
5:52 pm 17:52 Partly Cloudy 81 27.2 56 13.3 42 42 NNW 14 22 30.02 1017 10 16 0.00 0.00
6:52 pm 18:52 Partly Cloudy 79 26.1 56 13.3 45 45 N 12 19 30.03 1017 10 16 0.00 0.00
7:52 pm 19:52 Mostly Cloudy 77 25 56 13.3 48 48 NW 12 19 30.04 1017 10 16 0.00 0.00
8:52 pm 20:52 Mostly Cloudy 75 23.9 56 13.3 52 52 NNW 12 19 30.07 1018 10 16 0.00 0.00
9:52 pm 21:52 Mostly Cloudy 73 22.8 56 13.3 55 55 NW 10 17 30.08 1019 10 16 0.00 0.00
10:52 pm 22:52 Mostly Clear 72 22.2 56 13.3 57 57 NNW 8 13 30.09 1019 10 16 0.00 0.00
11:52 pm 23:52 Mostly Clear 69 20.6 57 13.9 66 66 N 6 9 30.09 1019 10 16 0.00 0.00

Powered by AerisWeather